Location: Unspecified
(0.0000°N, 0.0000°E)
Time: 20:29:56
(UTC+02:00)

Vanguard 2 - Visible Passes

Search period start: 24 June 2018 00:00
Search period end: 04 July 2018 00:00
Orbit: 553 x 2939 km, 32.9° (Epoch: 23 June)

Date Brightness Start Highest point End Pass type
(mag) Time Alt. Az. Time Alt. Az. Time Alt. Az.
24 Jun 11.2 00:01:51 10° SW 00:07:56 26° SW 00:07:56 26° SW visible
24 Jun 10.4 22:07:50 10° SW 22:24:14 42° SSE 22:24:18 42° SSE visible
25 Jun 11.2 00:20:13 10° SW 00:25:48 25° SW 00:25:48 25° SW visible
25 Jun 11.1 20:15:10 10° SSW 20:27:45 24° SSE 20:40:29 10° ESE visible
25 Jun 10.2 22:25:45 10° SW 22:42:21 52° SSE 22:42:21 52° SSE visible
26 Jun 11.3 00:38:51 10° WSW 00:43:53 23° WSW 00:43:53 23° WSW visible
26 Jun 10.9 20:33:00 10° SSW 20:47:06 30° SSE 20:59:09 14° ESE visible
26 Jun 10.0 22:43:47 10° SW 23:00:41 65° SSE 23:00:41 65° SSE visible
27 Jun 11.4 00:57:52 10° WSW 01:02:15 21° WSW 01:02:15 21° WSW visible
27 Jun 10.7 20:50:48 10° SSW 21:06:11 37° SSE 21:17:48 18° E visible
27 Jun 9.9 23:01:58 10° SW 23:19:22 80° S 23:19:22 80° S visible
28 Jun 11.5 01:17:20 10° WSW 01:20:57 18° W 01:20:57 18° W visible
28 Jun 10.5 21:08:36 10° SW 21:25:02 47° SSE 21:36:50 20° E visible
28 Jun 10.0 23:20:23 10° WSW 23:38:27 81° NW 23:38:27 81° NW visible
29 Jun 11.5 01:37:22 10° W 02:01:12 - NNE 01:40:04 15° W visible
29 Jun 10.3 21:26:29 10° SW 21:43:41 59° SE 21:56:26 20° ENE visible
29 Jun 10.2 23:39:05 10° WSW 23:56:49 65° NW 23:58:06 63° NNW visible
30 Jun 11.4 01:58:05 10° W 02:16:53 10° NNE 01:59:46 13° WNW visible
30 Jun 10.2 21:44:30 10° SW 22:02:12 73° SE 22:16:52 14° ENE visible
30 Jun 10.5 23:58:12 10° WSW 00:15:06 51° NW 00:18:38 45° N visible
01 Jul 11.3 02:19:42 10° WNW 02:31:54 13° N 02:33:32 10° N visible
01 Jul 10.2 22:02:43 10° SW 22:20:38 89° SE 22:36:32 10° NE visible
02 Jul 10.8 00:17:45 10° W 00:33:26 39° NW 00:45:24 10° NNE visible
02 Jul 11.4 02:42:51 10° NW 02:46:17 11° NNW 02:49:23 10° NNW visible
02 Jul 10.5 20:10:10 10° SW 20:25:33 51° SE 20:42:21 10° ENE visible
02 Jul 10.3 22:21:10 10° WSW 22:39:00 75° NW 22:54:39 10° NE visible
03 Jul 11.1 00:37:53 10° W 00:51:56 30° NW 01:02:52 10° NNE visible
03 Jul 10.4 20:28:01 10° SW 20:44:01 64° SE 21:01:20 10° ENE visible
03 Jul 10.6 22:39:56 10° WSW 22:57:23 60° NW 23:12:35 10° NE visible
